Nueva Ocotepeque, Honduras

7:15 AM CST on April 25, 2017 (GMT -0600)
Coronel Enrique Soto Cano Air Base

Weather History for MHSC - December, 2012

Change the Weather History Date:

Tuesday, December 11, 2012

  Actual Average Record
Temperature  
Mean Temperature 73 °F -  
Max Temperature 89 °F - - ()
Min Temperature 57 °F - - ()
Cooling Degree Days 8    
Growing Degree Days 23 (Base 50)    
Moisture  
Dew Point 66 °F    
Average Humidity 68    
Maximum Humidity 100    
Minimum Humidity 44    
Precipitation  
Precipitation 0.02 in - - ()
Sea Level Pressure  
Sea Level Pressure 29.84 in    
Wind  
Wind Speed 4 mph ()    
Max Wind Speed 16 mph    
Max Gust Speed 22 mph    
Visibility 5.8 miles    
Events      
T = Trace of Precipitation, MM = Missing Value Source: Averaged Metar Reports

Daily Weather History Graph

Daily Weather History Graph

Search for Another Location

Airport or City:

Trip Planner

Search our weather history database for the weather conditions in past years. The results will help you decide how hot, cold, wet, or windy it might be!

Date:

Astronomy

Dec. 11, 2012 Rise Set
Actual Time 6:11 AM CST 5:28 PM CST
Civil Twilight 5:48 AM CST 5:52 PM CST
Nautical Twilight 5:21 AM CST 6:18 PM CST
Astronomical Twilight 4:55 AM CST 6:45 PM CST
Moon 4:15 AM CST (12/11) 4:01 PM CST (12/11)
Length of Visible Light 12h 03m
Length of Day
11h 17m
Waning Crescent, 4% of the Moon is Illuminated
Dec 11
Waning Crescent
Dec 13
New
Dec 19
First Quarter
Dec 28
Full
Jan 4
Last Quarter

Hourly Weather History & Observations

Time (CST) Temp. Heat Index Dew Point Humidity Pressure Visibility Wind Dir Wind Speed Gust Speed Precip Events Conditions
5:11 AM 64.4 °F - 62.6 °F 94% 29.86 in 3.7 mi Calm Calm - N/A   Haze
5:58 AM 65.1 °F - 63.3 °F 94% 29.87 in 3.7 mi NE 4.6 mph - N/A   Haze
6:00 AM 59 °F - 59 °F 100%  in 2 mi Calm Calm - -  
6:58 AM 65.1 °F - 64.2 °F 97% 29.90 in 5.6 mi Calm Calm - N/A   Clear
7:58 AM 70.5 °F - 64.9 °F 82% 29.91 in 6.2 mi WSW 3.5 mph - N/A   Clear
8:58 AM 77.2 °F - 65.7 °F 67% 29.91 in 6.2 mi Calm Calm - N/A   Clear
9:58 AM 82.2 °F 84.4 °F 66.2 °F 58% 29.88 in 6.2 mi NNW 5.8 mph - N/A   Clear
10:58 AM 86.2 °F 88.2 °F 65.3 °F 50% 29.85 in 6.2 mi North 5.8 mph - N/A   Clear
11:58 AM 88.5 °F 90.8 °F 66.2 °F 47% 29.82 in 6.2 mi NW 9.2 mph - N/A   Scattered Clouds
12:00 PM 88 °F - 73 °F 52%  in 6 mi NNW 4.6 mph - -   Haze
12:58 PM 88.0 °F 89.6 °F 64.6 °F 46% 29.78 in 6.2 mi Variable 6.9 mph - N/A   Mostly Cloudy
1:58 PM 89.6 °F 91.5 °F 64.8 °F 44% 29.75 in 6.2 mi Variable 4.6 mph - N/A   Scattered Clouds
2:55 PM 90.5 °F 93.3 °F 66.4 °F 45% 29.85 in 6.2 mi NW 12.7 mph - N/A   Partly Cloudy
3:22 PM 87.8 °F 90.4 °F 66.2 °F 49% 29.73 in 6.2 mi North 13.8 mph - N/A   Light Drizzle
3:55 PM 85.8 °F 87.6 °F 64.9 °F 50% 29.75 in 6.2 mi NNW 12.7 mph - 0.00 in   Overcast
4:55 PM 83.1 °F 86.6 °F 68.7 °F 62% 29.78 in 6.2 mi North 16.1 mph 21.9 mph N/A   Mostly Cloudy
5:55 PM 78.6 °F - 70.2 °F 75% 29.82 in 6.2 mi NW 11.5 mph - N/A   Partly Cloudy
6:00 PM 76 °F - 72 °F 84%  in 6 mi Calm Calm - -   Mostly Cloudy
6:55 PM 77.0 °F - 66.7 °F 70% 29.85 in 6.2 mi NNW 9.2 mph - N/A   Mostly Cloudy
7:55 PM 76.1 °F - 66.7 °F 73% 29.88 in 6.2 mi North 3.5 mph - N/A   Overcast
8:55 PM 76.3 °F - 66.7 °F 72% 29.90 in 6.2 mi NNE 5.8 mph - N/A   Mostly Cloudy
9:55 PM 75.7 °F - 67.1 °F 74% 29.90 in 6.2 mi North 6.9 mph - N/A   Mostly Cloudy
10:55 PM 74.8 °F - 68.5 °F 81% 29.90 in 6.2 mi North 8.1 mph - N/A   Overcast